Wetbulb
57.21 57.15 57.21 57.55 57.85 57.91 58.02 58.08 58.34 58.45 58.68 58.93 59.22 59.56 59.93 60.58 60.39 63.06 57.56 64.67 67.98 76.30 75.64 71.58 70.53 71.57 71.32 67.59 67.13 66.39 58.80 57.20 58.47 58.47 60.83 64.63 65.00 68.15 69.24 67.23 67.67 69.10 69.09 71.11 72.93
56.75 56.72 56.80 56.97 57.40 57.75 58.13 58.38 58.51 58.53 58.34 58.51 58.72 59.29 60.03 60.36 62.03 59.59 68.10 70.88 75.05 75.92 70.15 67.60 63.90 64.66 62.01 60.06 62.39 60.96 58.19 56.79 62.20 63.72 62.85 63.49 64.92 66.26 66.20 66.81 67.04 67.89 70.51 71.99 72.45
56.05 56.11 56.25 56.68 56.89 57.08 57.91 58.10 58.27 58.24 58.07 57.94 58.48 58.98 59.62 61.44 59.71 56.47 70.31 71.52 75.02 74.76 67.82 65.77 61.59 61.78 57.51 58.75 60.09 59.88 57.31 58.34 62.84 65.49 65.51 64.06 64.39 66.82 65.65 64.76 67.43 67.08 68.67 70.76 71.36
55.67 55.58 55.71 56.02 56.33 56.47 56.68 57.28 57.52 57.32 57.30 57.62 58.18 58.78 59.83 62.72 51.13 61.78 71.84 73.45 74.59 70.91 63.71 61.17 59.80 57.26 56.19 56.92 59.26 56.32 58.54 58.52 63.99 66.76 65.21 63.84 65.64 63.91 65.44 65.91 69.97 70.20 70.71 70.92 70.67
55.19 55.14 55.24 55.38 55.72 55.91 56.22 56.58 56.90 56.83 56.78 57.53 58.10 58.76 62.34 57.81 56.82 63.96 73.32 72.30 71.47 67.18 60.38 57.76 57.01 57.56 55.74 57.79 57.34 56.56 59.13 60.12 65.98 66.75 65.93 66.74 64.42 63.68 64.68 68.46 70.77 70.99 70.77 70.56 71.03
54.84 54.87 54.89 55.33 55.76 56.25 56.33 56.59 56.49 56.45 56.58 57.36 58.50 58.39 60.21 53.39 61.68 65.53 69.23 67.09 66.28 61.91 58.14 58.13 57.50 58.95 57.16 57.38 56.32 60.75 62.65 60.76 65.98 66.76 67.37 64.17 65.21 64.25 66.23 69.82 69.73 70.03 70.26 71.00 71.11
55.08 55.39 55.36 55.15 55.10 55.90 56.16 56.02 55.75 56.28 57.24 58.13 59.05 61.07 57.13 55.82 60.83 62.56 66.93 66.15 65.89 62.38 57.30 58.84 59.36 57.87 58.05 57.00 60.63 64.06 62.45 64.28 65.72 66.72 66.10 66.17 62.80 62.39 67.48 69.29 68.95 69.56 70.16 70.82 71.33
55.05 55.13 55.15 55.27 55.39 55.55 55.43 55.22 55.43 57.63 59.14 59.51 59.58 62.23 54.78 60.52 61.61 60.29 62.65 61.21 63.21 63.00 59.34 59.82 59.69 58.79 58.09 59.28 61.35 61.41 62.88 59.28 64.59 65.88 66.19 64.84 58.75 65.60 67.58 67.75 67.59 68.48 69.28 70.16 71.22
55.00 55.00 54.98 54.83 54.73 54.85 54.40 54.70 56.09 60.48 59.50 60.73 62.56 59.76 54.51 62.02 59.36 61.05 61.06 59.59 59.20 59.07 59.45 58.88 58.61 57.12 57.47 55.79 58.02 60.19 55.15 57.17 61.04 65.18 65.35 63.83 60.92 66.34 67.26 66.64 66.44 67.69 68.32 68.99 70.13
54.65 54.52 54.44 54.48 54.23 53.88 53.82 55.08 57.00 59.44 61.99 63.03 62.44 56.92 58.19 57.24 61.35 60.73 62.20 60.55 57.94 57.52 55.98 56.09 55.88 54.09 55.43 56.00 52.25 54.44 55.91 56.72 57.73 63.17 64.26 62.54 61.48 66.29 66.73 66.01 65.53 66.69 67.90 68.53 68.88
54.40 54.34 54.21 54.15 53.72 53.16 54.32 57.34 56.83 57.44 60.18 57.35 57.50 55.48 56.06 60.36 61.78 60.65 60.96 57.64 57.80 56.81 52.45 54.64 51.95 50.57 54.00 57.73 58.14 57.52 56.62 55.84 58.97 63.25 62.82 61.34 62.02 63.87 67.10 66.22 65.10 65.58 66.86 67.61 68.42
54.37 54.00 53.92 53.55 52.66 53.07 54.87 53.44 50.13 50.42 48.98 54.05 53.87 57.45 59.42 59.07 56.31 59.96 61.36 57.73 55.86 52.26 54.25 52.12 49.68 54.45 56.54 56.93 57.04 56.97 56.40 56.05 59.74 62.43 62.35 60.73 60.72 63.42 66.41 66.77 66.29 65.44 66.03 66.94 67.93
54.02 53.78 53.44 52.97 52.27 54.96 54.53 51.64 53.85 53.48 49.56 52.20 53.93 53.27 54.65 58.32 55.65 57.21 60.25 58.93 55.47 51.67 51.95 50.60 52.32 55.34 54.53 54.66 54.86 56.86 56.17 56.18 56.23 60.32 62.19 59.86 58.37 61.30 64.14 67.23 67.76 67.62 67.58 67.85 67.64
53.79 53.45 52.87 51.67 52.50 53.05 54.20 54.34 54.77 53.67 48.28 51.32 51.75 54.40 55.22 56.00 53.62 59.27 61.30 59.09 56.13 51.10 51.67 51.62 54.45 53.04 52.96 53.47 56.16 55.29 58.34 57.32 57.54 56.45 52.80 59.70 51.04 57.00 60.63 63.39 66.38 67.53 67.99 67.93 68.32
53.47 53.05 52.49 51.60 51.41 51.64 52.74 54.69 54.28 53.73 42.70 51.75 52.80 58.91 57.56 54.09 54.66 55.56 61.26 58.85 52.83 51.27 51.71 50.22 51.64 51.52 51.96 53.96 57.08 56.54 59.16 58.08 57.93 56.22 54.66 54.88 52.20 55.42 60.96 61.09 64.83 66.69 68.25 69.21 69.18
53.01 52.46 52.19 53.80 53.19 53.58 54.73 54.07 53.58 47.51 42.25 49.52 53.32 52.96 53.40 54.04 54.47 56.73 57.17 60.43 58.15 52.08 52.55 52.20 54.30 53.84 53.91 55.89 57.23 57.94 56.71 57.51 56.84 55.54 50.34 54.05 53.56 53.67 57.99 61.64 64.06 66.81 67.75 69.46 70.04
52.26 51.47 51.45 53.16 50.15 54.38 54.40 51.59 45.21 43.44 51.11 49.04 50.30 53.05 52.70 51.83 52.93 54.53 53.71 54.63 52.41 48.43 48.06 50.11 51.14 53.80 55.10 53.93 56.41 56.21 55.08 50.10 48.84 49.14 48.61 55.53 53.39 55.21 58.18 60.68 62.47 64.82 67.00 68.70 70.27
51.34 50.63 53.06 52.28 54.86 54.45 52.50 47.08 41.49 46.79 48.97 51.96 50.95 52.25 51.11 52.69 52.15 53.24 52.94 52.22 55.17 52.39 49.32 47.00 45.26 51.41 53.81 54.37 53.52 54.07 55.30 50.77 46.56 47.68 50.15 55.25 51.02 54.59 60.16 61.58 62.67 64.70 66.43 68.43 69.13
50.60 52.24 51.79 55.20 55.35 54.55 48.36 42.11 44.63 47.48 49.77 49.20 50.69 49.15 50.05 52.32 51.82 52.40 52.56 52.45 54.74 54.96 49.26 48.24 48.05 52.70 53.52 54.59 56.08 54.03 53.18 56.98 53.04 54.21 50.91 53.16 55.35 57.74 59.79 59.28 60.83 61.96 64.29 66.26 68.05
49.35 49.20 50.93 54.98 55.54 52.35 44.74 41.31 46.59 48.05 48.52 49.68 47.84 50.40 48.58 49.95 50.42 50.91 52.03 54.04 53.93 56.19 55.29 51.73 48.05 51.61 52.59 54.51 54.84 56.10 57.04 51.98 52.67 47.93 47.21 50.74 52.48 52.97 57.00 58.24 59.68 60.89 62.16 64.78 67.42
49.33 44.74 51.66 55.25 54.04 48.50 41.16 42.99 45.51 48.73 48.42 47.56 48.54 49.04 49.94 49.72 51.09 51.03 51.11 53.70 54.94 55.72 56.31 53.17 50.68 50.52 52.21 51.11 51.00 51.50 52.24 54.64 54.78 52.95 48.56 48.14 51.15 59.05 58.64 59.93 60.08 61.49 62.12 63.38 65.40
47.21 41.61 52.67 53.76 45.72 46.29 43.35 45.32 44.81 46.12 48.71 47.72 48.01 48.28 49.76 50.87 50.00 51.10 51.33 52.86 56.18 56.51 53.05 54.62 51.38 48.67 49.51 53.43 54.28 54.27 53.31 54.52 50.58 51.04 52.14 51.76 51.76 59.16 59.63 60.16 61.08 62.10 62.48 65.99 66.78
44.00 44.14 52.70 51.01 39.76 42.78 46.25 45.08 46.46 45.70 46.00 46.37 46.82 48.63 50.44 49.65 48.30 50.44 51.56 52.53 53.98 55.74 54.93 55.43 50.77 47.42 48.32 51.67 53.70 51.73 52.77 54.00 54.42 54.59 52.10 49.10 51.17 59.72 60.60 60.33 61.11 62.52 64.19 66.64 68.98
44.24 39.61 45.81 49.04 48.11 42.95 41.96 42.27 43.23 47.78 46.88 47.48 47.37 49.09 48.52 47.49 50.56 49.28 49.63 50.22 52.86 55.74 59.58 58.77 52.79 50.82 47.49 50.00 52.17 50.37 51.20 52.54 52.60 50.24 50.73 51.86 54.16 57.65 58.93 59.34 60.41 61.04 63.45 66.62 69.03
45.56 42.49 42.73 40.44 41.96 42.09 42.52 42.31 41.43 42.60 47.83 49.41 46.96 46.75 46.97 45.87 47.48 48.01 50.09 49.74 50.98 53.14 55.48 56.29 51.76 53.62 53.39 53.33 52.52 51.92 51.30 52.10 51.90 52.41 50.35 52.25 53.20 56.93 59.52 60.42 61.00 61.80 63.65 66.90 68.31
41.65 41.67 44.89 41.51 41.84 40.53 39.47 41.85 41.15 42.46 43.93 45.18 45.79 46.26 47.07 46.57 47.87 47.55 49.62 50.64 50.85 52.43 53.67 54.68 51.80 53.94 51.73 53.51 53.44 51.21 52.23 52.69 52.52 52.80 53.30 53.65 54.27 59.34 60.65 61.36 61.66 62.99 64.98 65.60 68.18
49.53 47.53 43.82 40.37 39.78 38.60 39.22 39.93 40.80 42.45 45.16 46.80 44.90 44.76 46.21 48.35 50.23 51.41 52.60 53.34 53.02 52.22 52.00 52.40 51.88 51.63 48.61 52.30 51.82 49.09 52.47 53.13 53.48 54.36 53.83 51.79 55.85 58.60 58.85 60.25 61.72 63.42 63.88 64.37 66.40
MSLP
1019.35 1018.94 1018.45 1017.97 1017.48 1017.00 1016.45 1015.90 1015.46 1014.99 1014.57 1014.14 1013.70 1013.28 1012.88 1012.51 1011.66 1011.18 1008.86 1007.52 1007.88 1008.79 1009.05 1008.58 1008.45 1008.04 1007.74 1006.62 1006.17 1005.16 1002.96 1002.12 1002.75 1003.47 1005.14 1006.65 1007.35 1008.46 1009.03 1009.57 1009.89 1010.51 1010.79 1012.27 1013.66
1019.44 1018.94 1018.42 1017.92 1017.40 1016.92 1016.43 1015.81 1015.30 1014.84 1014.35 1013.95 1013.56 1013.12 1012.72 1012.32 1010.70 1008.65 1007.27 1007.52 1007.82 1008.38 1008.23 1007.72 1007.21 1007.16 1006.12 1005.44 1004.98 1004.06 1002.64 1002.45 1002.98 1003.57 1004.72 1006.17 1007.06 1008.14 1008.76 1009.37 1010.18 1010.70 1011.52 1012.81 1013.73
1019.52 1019.00 1018.51 1017.94 1017.38 1016.82 1016.26 1015.75 1015.23 1014.79 1014.22 1013.76 1013.39 1012.99 1012.57 1012.02 1009.49 1006.46 1007.16 1007.42 1007.82 1008.02 1007.25 1006.82 1006.33 1006.20 1005.11 1004.62 1004.10 1003.51 1002.49 1002.87 1003.30 1003.73 1004.78 1006.00 1007.04 1007.96 1008.30 1008.84 1009.79 1010.64 1011.77 1012.90 1013.60
1019.83 1019.13 1018.46 1017.87 1017.36 1016.76 1016.18 1015.57 1015.03 1014.67 1014.22 1013.65 1013.23 1012.82 1012.40 1011.05 1007.84 1006.61 1007.30 1007.50 1008.00 1007.46 1006.90 1006.50 1005.96 1005.16 1004.33 1003.66 1003.75 1003.40 1002.98 1003.34 1003.48 1004.28 1004.88 1005.87 1006.94 1007.61 1008.12 1008.61 1009.51 1010.77 1011.88 1012.70 1013.26
1020.01 1019.37 1018.60 1017.88 1017.14 1016.62 1015.98 1015.32 1014.68 1014.25 1013.92 1013.39 1013.02 1012.70 1011.86 1009.30 1006.66 1006.68 1007.35 1007.73 1007.99 1007.46 1006.45 1005.86 1005.18 1004.46 1003.74 1003.37 1003.51 1003.18 1003.01 1003.44 1003.90 1004.58 1005.03 1006.27 1006.91 1007.50 1008.38 1009.14 1009.92 1010.98 1012.02 1012.54 1012.92
1019.98 1019.40 1018.75 1017.97 1017.18 1016.40 1015.70 1015.00 1014.23 1013.67 1013.39 1012.95 1012.65 1012.64 1010.98 1007.72 1006.14 1006.49 1006.51 1007.09 1006.76 1006.77 1005.97 1005.46 1004.62 1004.12 1003.90 1003.47 1003.26 1003.20 1003.25 1003.45 1004.04 1004.83 1005.67 1005.94 1007.09 1007.54 1008.91 1009.56 1010.23 1011.13 1011.73 1012.23 1012.66
1019.86 1019.24 1018.56 1017.90 1017.10 1016.24 1015.28 1014.62 1013.81 1013.02 1012.55 1012.41 1012.23 1011.81 1009.42 1006.39 1005.91 1006.29 1006.43 1006.30 1006.21 1006.18 1005.54 1005.21 1004.74 1004.40 1003.62 1003.27 1003.66 1003.40 1003.28 1003.74 1004.23 1004.94 1005.45 1005.84 1006.62 1006.95 1008.66 1009.56 1010.34 1010.87 1011.43 1011.90 1012.37
1019.74 1019.00 1018.31 1017.57 1016.74 1015.82 1014.95 1013.99 1013.32 1012.44 1011.97 1011.86 1011.93 1010.78 1007.28 1005.84 1005.88 1006.15 1005.98 1006.00 1006.20 1006.21 1005.69 1005.37 1005.38 1004.48 1003.88 1003.64 1003.32 1002.86 1002.68 1002.63 1004.10 1004.72 1005.57 1005.60 1005.52 1007.18 1008.44 1009.10 1009.78 1010.43 1010.99 1011.60 1012.06
1019.76 1018.91 1018.08 1017.24 1016.36 1015.32 1014.44 1013.48 1012.78 1012.14 1011.95 1011.87 1011.10 1009.46 1006.04 1006.25 1005.60 1004.98 1005.32 1005.21 1005.70 1005.82 1005.74 1005.78 1005.46 1004.03 1003.55 1002.73 1002.04 1001.97 1001.10 1001.43 1003.43 1004.18 1004.98 1005.36 1005.11 1006.94 1008.01 1008.58 1009.15 1009.86 1010.38 1011.00 1011.50
1019.62 1018.85 1017.98 1016.96 1015.97 1014.82 1013.76 1012.74 1012.40 1012.18 1011.70 1011.00 1010.08 1008.76 1005.55 1004.27 1004.37 1004.46 1004.87 1005.01 1005.09 1005.18 1005.40 1005.26 1004.62 1003.45 1002.40 1001.50 1000.30 1000.44 1000.52 1001.02 1002.02 1003.68 1004.34 1004.56 1004.85 1006.32 1007.35 1007.80 1008.32 1008.95 1009.64 1010.14 1010.64
1019.41 1018.72 1017.84 1016.70 1015.64 1014.59 1013.06 1011.40 1011.68 1010.99 1009.78 1007.02 1006.14 1005.03 1004.37 1004.08 1004.47 1004.31 1004.51 1004.65 1004.62 1004.58 1003.85 1004.17 1003.18 1001.79 1001.11 1000.82 1000.08 1000.03 1000.40 1000.59 1001.36 1002.68 1003.56 1003.59 1004.06 1004.76 1006.44 1007.03 1007.39 1008.00 1008.73 1009.22 1009.66
1019.22 1018.38 1017.63 1016.39 1015.34 1014.01 1013.14 1011.01 1012.04 1012.16 1008.98 1006.22 1005.58 1004.85 1004.48 1004.47 1003.52 1003.70 1004.07 1003.74 1003.81 1003.42 1003.14 1003.34 1001.82 1001.19 1001.06 1000.91 1000.60 1000.77 1000.39 1000.22 1001.45 1002.56 1003.09 1002.79 1003.12 1003.74 1004.67 1005.73 1006.12 1006.74 1007.47 1008.12 1008.76
1019.34 1018.48 1017.46 1016.14 1014.78 1013.50 1012.48 1012.11 1012.28 1011.81 1009.14 1004.72 1003.96 1003.47 1003.38 1003.85 1003.04 1002.58 1003.44 1002.98 1002.87 1002.76 1002.28 1001.35 1000.80 1000.80 1000.79 1000.77 1000.81 1000.28 1000.06 1000.06 1000.72 1002.13 1002.59 1002.64 1002.05 1002.27 1002.98 1004.36 1005.16 1005.68 1006.29 1007.01 1007.63
1019.19 1018.55 1017.77 1016.43 1014.39 1013.56 1011.92 1012.24 1012.04 1011.83 1008.02 1003.22 1002.88 1002.02 1002.43 1002.50 1002.15 1001.98 1002.45 1002.25 1002.14 1001.86 1002.08 1001.32 1000.54 1000.51 1000.84 1000.33 1000.39 999.65 1000.03 1000.02 1000.74 1001.59 1001.01 1002.09 1000.43 1000.44 1001.20 1002.68 1003.63 1004.30 1005.01 1005.59 1006.45
1018.89 1018.26 1017.87 1017.57 1015.54 1013.22 1012.43 1012.22 1011.92 1011.18 1005.82 1001.92 1001.54 1001.53 1001.50 1001.07 999.54 1000.82 1001.77 1001.81 1001.22 1001.29 1001.62 1000.59 1000.27 1000.62 1000.15 999.68 1000.04 999.39 999.99 1000.38 1000.75 1001.00 1000.80 1001.22 1001.05 999.86 1000.84 1001.23 1002.01 1002.69 1003.42 1004.18 1004.96
1018.64 1017.96 1017.51 1015.42 1014.95 1013.53 1012.98 1012.14 1011.34 1008.70 1003.15 1000.70 1000.60 1000.70 1000.76 1000.58 1000.00 1000.04 1000.91 1001.38 1001.15 1001.17 1001.57 1000.28 1000.77 1000.42 999.77 999.68 999.82 1000.07 1000.42 1000.68 1000.98 1000.68 1000.22 1000.24 1000.24 998.90 998.80 999.51 1000.21 1001.28 1001.97 1002.78 1003.63
1018.27 1017.48 1017.00 1015.69 1013.27 1013.57 1013.06 1011.13 1008.62 1004.80 1001.69 999.74 999.31 999.43 999.17 999.29 999.44 999.99 999.98 1000.26 999.96 1000.27 1000.12 1000.36 1000.33 1000.22 999.86 999.44 999.89 1000.10 1000.04 1000.14 1000.30 999.86 999.54 999.37 999.57 998.77 998.18 998.55 998.80 999.26 1000.44 1001.48 1002.64
1017.65 1016.60 1015.14 1014.79 1013.98 1013.82 1012.44 1009.94 1005.69 1002.14 1000.57 999.86 999.06 998.65 998.32 998.29 998.67 998.91 999.14 999.13 999.42 999.02 998.45 998.78 999.30 999.35 999.54 998.67 998.94 999.38 998.86 998.38 998.39 998.44 998.53 999.40 998.76 998.21 998.14 998.07 998.09 998.56 999.10 1000.12 1001.00
1017.19 1014.61 1013.86 1013.70 1013.93 1013.69 1011.60 1007.58 1003.38 1001.94 1000.77 999.74 999.13 998.25 997.81 997.72 997.69 998.08 997.88 997.72 997.87 998.07 997.73 997.58 997.56 998.25 998.62 998.83 998.48 998.64 998.20 998.52 998.19 998.02 998.24 997.47 997.72 998.07 997.88 997.58 997.40 997.53 998.16 998.94 999.63
1017.00 1014.67 1013.03 1013.49 1013.49 1012.72 1010.18 1005.96 1003.45 1002.66 1001.86 1000.69 998.98 997.94 997.01 997.08 997.39 997.09 996.97 996.73 996.78 997.34 997.61 997.51 997.35 997.66 998.30 998.56 998.21 997.45 998.50 998.29 998.07 997.63 997.24 997.40 997.06 996.54 996.71 996.76 996.53 996.74 997.13 997.71 998.51
1016.60 1014.04 1013.23 1013.33 1013.10 1011.22 1007.95 1005.63 1004.23 1003.38 1002.83 1001.53 999.75 998.56 997.73 996.63 996.59 996.18 995.83 995.99 996.30 996.74 997.74 997.24 997.42 996.90 997.66 997.33 997.06 998.01 997.66 997.28 997.30 997.34 996.92 996.67 995.90 996.19 996.68 996.57 996.26 996.35 996.50 996.95 997.62
1016.46 1013.40 1013.17 1013.04 1011.52 1009.14 1007.30 1006.26 1005.83 1004.12 1003.21 1002.23 1001.40 1000.32 998.63 997.71 997.14 996.10 995.78 995.78 995.85 996.11 996.79 997.15 997.26 996.62 996.88 997.06 997.14 996.68 996.73 997.08 996.49 996.71 996.55 996.17 995.10 995.26 995.94 996.11 996.22 996.44 996.51 997.28 997.58
1016.06 1014.10 1013.03 1012.76 1010.34 1008.45 1007.73 1007.58 1006.59 1005.22 1003.70 1002.61 1001.58 1000.93 999.93 999.06 998.31 996.94 996.55 996.79 996.87 996.12 996.28 996.96 996.78 996.42 996.45 996.80 997.21 996.40 996.04 996.27 996.60 996.57 995.59 995.86 995.38 995.24 995.58 996.18 996.19 996.40 996.71 997.10 997.79
1016.69 1013.66 1012.09 1011.93 1011.57 1010.67 1009.37 1008.63 1007.01 1006.13 1005.00 1003.76 1002.46 1001.62 1000.85 1000.22 999.45 998.18 997.77 997.88 997.29 996.58 996.86 996.89 996.52 996.01 994.80 994.96 995.81 996.28 995.87 995.99 996.11 995.58 995.44 994.79 995.22 994.79 995.37 995.64 995.63 995.74 996.12 996.90 997.73
1016.52 1014.24 1014.50 1012.02 1011.93 1011.96 1011.12 1009.71 1008.35 1007.17 1005.95 1005.22 1003.79 1002.90 1001.86 1001.01 1000.08 999.42 998.63 998.30 997.84 997.77 997.50 996.89 996.37 996.07 995.95 995.14 994.88 995.00 995.60 995.72 995.65 995.48 994.81 994.78 994.32 994.86 994.94 995.21 995.32 995.36 995.78 996.64 997.35
1016.55 1015.34 1014.79 1013.95 1013.30 1012.50 1011.45 1009.98 1009.29 1008.64 1008.45 1005.99 1005.29 1005.03 1004.01 1002.04 1001.26 1000.34 999.82 998.89 997.92 998.23 997.66 997.34 996.85 996.56 996.11 995.92 995.42 995.00 994.92 994.73 994.84 994.91 994.70 994.49 993.93 994.11 994.88 995.04 995.03 995.36 995.86 996.24 996.78
1016.72 1016.64 1016.31 1014.61 1013.37 1012.66 1011.22 1010.64 1010.48 1010.49 1008.95 1008.37 1008.03 1007.12 1005.15 1004.33 1004.18 1003.06 1001.94 1000.47 999.78 999.21 998.35 998.08 997.28 997.05 996.10 996.13 995.83 994.80 993.40 993.74 994.03 994.29 994.48 994.00 994.29 994.62 994.50 994.92 994.99 995.14 995.41 995.62 995.87
Wind_Speed
21 21 21 21 20 20 20 20 20 20 19 19 18 16 15 12 15 7 9 2 7 20 9 12 10 10 9 7 8 6 7 4 7 2 11 11 12 6 5 11 6 2 10 22 21
22 22 22 22 21 20 20 20 20 19 20 19 18 17 14 14 8 13 1 13 19 19 18 16 12 10 7 5 4 8 5 8 5 9 11 10 9 9 13 11 7 10 17 21 20
23 23 22 22 22 22 21 20 20 19 20 19 18 17 15 15 10 1 6 14 22 19 15 14 6 10 8 4 3 1 5 7 7 8 13 13 9 8 11 9 10 17 22 21 19
22 23 24 23 22 23 23 22 21 20 19 18 17 16 14 7 6 6 5 13 20 20 12 12 10 11 8 6 2 8 2 2 7 10 13 10 12 8 10 8 11 18 21 20 18
21 22 23 24 24 23 24 24 23 21 19 17 15 13 9 8 10 6 6 12 19 17 18 16 14 13 10 1 4 8 4 4 8 10 11 11 7 7 6 6 16 20 19 19 18
22 22 22 23 24 24 23 23 23 22 19 16 12 8 8 13 7 3 4 16 18 19 18 17 10 10 7 3 5 3 4 10 11 12 10 8 9 6 7 13 18 20 20 18 17
21 21 22 24 25 25 25 24 25 23 18 11 7 6 9 13 2 5 8 11 14 20 18 16 10 11 4 6 3 5 12 12 12 12 9 7 9 4 13 16 17 18 17 17 16
22 23 23 24 25 26 26 26 24 17 10 5 9 7 8 4 5 8 9 7 10 16 15 14 9 12 9 3 8 11 11 12 11 11 6 8 10 10 15 16 16 16 15 15 17
21 23 24 25 26 27 26 26 17 7 3 8 8 7 8 7 10 13 13 11 14 11 10 7 11 12 9 12 11 10 12 10 11 12 9 11 7 11 14 15 15 15 15 15 15
21 23 25 27 28 28 28 21 3 4 7 6 4 7 8 7 8 9 12 11 11 13 11 12 11 11 13 14 13 16 14 13 10 13 12 11 6 11 14 15 15 16 15 16 16
22 23 25 28 29 30 17 5 7 9 9 9 2 4 3 6 6 11 16 13 12 15 15 17 16 19 21 18 14 8 15 14 10 12 14 12 10 12 14 16 16 16 16 17 17
23 25 25 28 30 26 10 3 6 6 11 14 18 16 10 1 8 13 16 14 15 17 18 14 20 21 18 18 13 13 14 13 8 10 13 10 14 12 16 19 18 18 18 18 18
21 24 26 29 31 11 6 7 6 7 9 8 15 14 14 18 13 18 21 20 17 20 21 19 17 18 17 16 17 17 17 16 11 11 13 6 13 14 15 18 19 18 17 18 19
21 22 23 30 11 9 2 2 9 4 8 10 10 8 14 14 16 17 20 18 13 21 18 21 16 20 19 22 20 18 15 14 11 10 10 11 11 9 13 17 21 21 20 20 20
22 22 20 18 12 7 7 10 10 6 8 9 10 10 12 18 11 25 20 21 17 14 16 16 19 20 23 22 20 15 14 12 13 15 7 12 9 4 7 13 21 23 23 23 22
22 23 22 3 6 10 11 12 6 8 10 9 10 13 15 19 10 20 23 19 15 15 17 15 6 18 22 21 19 7 12 13 11 13 11 15 11 13 10 12 13 20 22 24 23
23 25 20 7 5 8 11 7 8 11 5 10 11 14 17 14 18 16 26 26 16 19 16 19 13 14 17 22 16 18 18 10 11 12 13 8 8 15 4 5 7 14 20 23 21
26 28 1 8 7 8 7 8 14 4 13 2 6 13 16 14 20 19 24 24 26 21 16 19 20 21 17 21 16 25 21 14 17 14 15 10 11 14 8 8 9 8 10 18 23
29 7 5 1 3 5 8 15 8 13 8 6 8 13 17 14 10 21 24 26 27 24 18 20 23 27 16 22 22 22 26 21 22 19 10 10 12 9 13 13 9 9 12 15 19
11 9 2 7 5 7 10 20 16 6 8 8 15 12 15 18 16 21 22 24 25 27 22 10 14 15 22 19 21 24 18 19 13 21 21 18 18 9 9 11 10 8 9 10 14
9 7 7 5 4 7 13 18 17 15 10 8 9 15 12 10 17 18 15 15 27 26 23 18 12 17 18 24 20 13 17 15 20 21 19 17 16 13 13 13 8 10 9 7 10
6 6 3 6 8 7 11 10 6 15 20 16 8 11 14 13 13 16 20 15 16 21 27 23 14 13 21 21 24 23 22 24 16 21 11 16 14 7 8 11 8 11 11 5 8
7 6 1 5 7 10 11 10 12 18 17 17 17 12 8 12 9 14 12 2 5 21 24 22 13 15 18 14 12 20 25 24 22 20 22 18 16 13 11 9 11 8 11 8 8
6 5 4 4 3 8 7 14 12 11 16 20 19 18 17 15 11 4 10 5 7 19 7 15 20 22 18 19 16 19 19 21 21 19 19 18 18 14 13 12 12 10 12 8 8
4 2 5 3 2 8 7 8 11 11 10 10 14 21 18 19 18 15 11 6 6 5 11 16 21 22 23 22 19 21 22 19 24 24 23 21 25 22 19 14 15 11 11 9 10
5 5 0 9 8 10 5 10 7 3 7 8 9 13 14 18 16 16 16 12 8 11 13 9 11 18 21 21 20 19 18 21 26 24 24 24 20 11 16 16 9 10 12 13 13
1 4 6 5 7 8 7 5 6 7 6 6 6 13 8 4 13 16 15 14 7 6 8 7 10 10 16 21 21 25 31 29 25 20 20 22 16 15 15 17 15 14 14 13 15
Wind_Direction
4 1 357 354 350 347 343 340 338 337 337 335 335 334 331 326 297 216 249 214 168 163 205 164 192 190 201 248 239 268 259 42 83 65 111 134 127 106 92 130 140 145 145 141 147
360 357 353 350 346 343 339 335 333 333 332 331 330 329 326 325 276 257 77 148 148 168 179 183 193 190 224 241 219 263 295 39 11 91 122 132 135 126 148 135 133 134 116 142 153
355 353 350 346 342 338 334 330 329 329 327 326 325 323 319 310 273 173 9 164 164 183 188 214 239 211 251 250 180 295 304 34 100 95 127 131 125 149 155 171 154 152 146 153 161
353 349 345 342 338 335 331 326 323 323 321 318 317 316 313 264 288 96 114 151 171 192 199 199 206 226 250 229 176 272 55 42 112 136 129 139 126 141 177 53 139 149 154 159 169
351 347 342 338 334 331 327 323 319 317 315 310 307 309 281 237 256 113 146 169 177 203 200 200 212 232 250 244 233 258 21 153 141 136 123 128 128 100 132 127 144 147 160 167 173
346 342 338 335 331 327 323 321 316 312 308 298 290 287 250 260 96 87 174 168 184 197 206 209 223 238 299 242 284 350 98 138 143 129 145 134 129 184 120 138 147 158 166 173 178
341 337 334 333 329 325 321 319 315 310 301 277 246 236 251 256 162 147 156 179 184 199 207 210 234 232 200 185 165 148 132 134 143 150 150 148 161 110 142 153 159 170 175 177 184
338 335 333 331 327 323 321 317 315 308 298 210 184 222 262 127 208 210 198 176 191 203 227 205 234 253 246 123 179 195 185 169 153 168 143 231 114 126 156 168 172 179 180 184 188
337 334 332 330 327 323 320 314 307 305 139 162 202 243 258 126 210 204 193 168 161 170 204 199 225 233 179 211 193 195 192 194 160 198 152 220 82 140 173 181 181 186 188 191 193
337 334 332 328 327 323 321 302 187 219 200 227 264 236 219 199 135 162 179 162 168 162 162 191 204 212 220 209 208 190 240 182 178 184 197 201 202 155 184 194 194 194 194 196 199
335 334 332 327 326 323 318 215 208 186 209 255 137 267 150 146 167 182 166 168 177 187 187 195 204 207 201 215 238 239 215 201 189 155 203 223 223 187 189 205 204 199 198 203 205
334 333 334 327 327 318 280 12 50 343 296 236 245 248 253 72 186 168 184 187 180 196 204 180 220 203 207 212 229 233 230 222 132 169 216 233 237 235 185 212 210 203 200 207 203
332 332 333 328 323 297 347 63 350 318 259 244 219 227 211 211 225 178 190 205 198 205 197 213 201 209 209 198 219 228 227 222 218 174 220 274 257 228 213 208 214 213 208 206 210
331 332 334 331 292 349 244 12 326 275 267 171 198 208 192 198 218 216 201 191 207 209 202 231 213 195 200 205 208 216 226 238 179 207 226 192 285 200 194 204 214 212 208 207 206
329 328 331 322 306 287 8 321 323 229 271 116 140 127 156 192 152 188 192 203 203 199 195 202 202 202 207 202 206 235 169 217 205 220 249 199 252 233 184 203 212 215 210 211 204
325 322 327 260 240 277 311 306 244 228 237 167 146 178 168 209 191 153 186 209 225 201 211 224 221 214 210 207 198 188 191 207 218 237 226 250 225 269 169 219 200 210 213 212 208
322 316 312 287 299 333 310 256 217 242 101 180 187 179 196 177 192 183 186 194 192 190 196 215 195 209 227 205 196 186 175 184 212 214 245 235 215 258 295 254 242 191 208 211 208
321 309 238 270 296 294 265 219 232 209 222 76 214 190 197 180 202 194 191 196 208 206 189 195 203 192 201 210 191 209 203 233 217 232 235 169 231 243 259 285 260 200 198 204 209
313 311 263 174 294 238 232 218 214 228 252 230 191 209 203 190 212 199 205 209 202 205 231 199 219 185 200 208 210 203 223 229 248 251 275 239 206 253 248 252 243 231 203 208 211
314 305 267 326 228 221 232 235 232 248 324 259 240 209 209 195 198 195 197 212 211 205 219 196 221 182 194 207 222 226 202 215 230 245 242 239 252 245 218 240 237 216 217 223 216
281 290 76 72 231 221 233 230 242 244 255 268 253 247 238 216 204 197 213 213 209 195 216 218 233 178 203 206 200 197 225 223 241 224 245 246 244 223 242 258 239 231 254 243 227
294 274 70 297 244 232 241 235 329 268 245 245 267 273 268 230 238 233 218 212 206 196 203 215 210 219 206 218 224 219 216 214 227 223 252 263 250 190 198 241 263 266 276 276 267
300 287 234 264 258 231 235 272 257 266 249 251 231 232 240 256 247 241 219 19 247 219 202 198 224 210 229 182 212 235 218 224 226 239 226 230 233 226 196 235 238 254 269 261 245
287 284 172 231 318 301 312 269 262 264 261 268 265 254 248 245 241 243 222 172 228 228 97 225 216 227 214 217 193 211 224 225 238 227 234 236 238 229 203 228 245 243 259 264 237
237 34 3 301 153 316 274 300 277 272 268 303 241 247 248 236 241 219 245 200 179 103 198 216 222 228 232 256 215 203 209 205 223 230 231 231 233 231 248 234 248 248 265 262 235
294 300 198 284 279 269 217 252 269 312 287 249 292 1 292 257 247 230 238 237 218 180 192 215 222 232 226 229 245 236 231 220 217 228 238 246 253 225 236 247 249 242 250 249 235
276 274 271 275 266 269 267 249 290 317 259 290 6 322 275 333 339 310 309 306 323 305 179 219 219 205 224 225 231 240 230 226 233 230 234 238 241 249 232 247 245 249 262 259 255